RH
61 85 93 98 99 56 46 29 88 56 63 27 20 25 25 34 28 90 100 81 100 96 81 45 32 49 28 22 22 17 10 12 16 13 16 22 27 27 21 26 23 23 23 23 20 13 12 12 11
90 95 100 100 73 34 30 46 86 84 50 51 34 45 39 51 62 40 86 95 100 75 100 98 45 58 56 27 25 24 17 18 19 25 14 9 13 26 29 32 32 30 27 26 27 20 12 14 18
87 100 99 99 77 51 42 60 80 71 50 61 52 55 54 62 55 50 42 51 58 82 92 100 100 84 69 57 32 29 24 26 25 30 25 16 11 10 14 20 28 36 36 37 40 41 26 33 35
100 62 100 68 73 55 45 82 100 78 61 72 65 61 50 60 66 64 36 64 94 100 100 93 100 93 100 84 62 53 42 29 27 29 29 27 26 24 20 19 18 20 23 33 36 44 45 49 54
96 52 92 81 57 79 74 77 100 100 84 74 73 70 65 49 67 48 60 99 100 100 100 100 100 100 99 96 94 76 72 57 38 37 35 37 38 35 37 24 23 24 43 30 26 28 40 40 47
97 78 83 99 88 98 100 100 100 69 73 50 69 57 62 57 63 61 72 78 96 79 94 100 100 100 100 99 95 100 96 69 76 79 52 50 49 46 52 53 48 36 44 37 74 77 36 27 27
100 100 100 100 100 75 100 98 73 68 60 76 68 62 73 81 92 85 78 74 90 66 100 98 100 100 100 100 65 100 100 99 81 99 100 85 79 61 61 74 82 59 52 100 84 90 89 96 68
99 100 91 100 67 82 100 68 83 95 87 100 78 87 89 93 89 100 47 31 32 68 92 100 100 100 100 100 91 90 100 100 100 93 100 100 100 86 72 78 100 98 81 85 100 100 93 93 98
77 100 92 77 100 97 100 100 100 100 100 100 100 80 100 90 57 50 41 38 27 31 59 88 100 89 100 100 100 81 100 100 92 100 100 100 100 100 84 69 77 98 93 99 100 100 100 94 87
39 69 95 100 100 100 94 100 100 100 96 100 100 93 81 100 86 52 45 51 59 40 26 29 46 68 100 100 100 100 100 100 100 100 100 100 100 100 100 100 100 100 98 96 99 97 100 100 100
80 69 95 100 88 81 97 100 94 100 88 100 100 80 100 100 84 76 55 63 80 65 44 28 34 45 75 100 72 88 88 100 100 100 100 90 84 100 100 100 96 92 94 100 99 100 95 65 84
86 94 100 97 98 99 100 92 100 100 98 89 100 100 100 100 83 95 99 91 96 82 58 41 33 35 42 100 52 70 100 100 100 99 100 100 87 68 64 72 52 66 65 96 78 91 92 58 52
94 100 98 100 82 73 72 55 53 90 99 85 92 96 94 98 86 81 100 100 93 62 51 59 67 56 66 77 48 71 82 94 91 94 100 100 100 100 100 100 95 100 99 84 84 91 100 94 88
100 100 98 74 61 47 37 35 31 49 54 75 59 50 91 95 77 63 64 98 94 61 70 78 81 87 96 72 92 100 100 100 100 99 100 100 100 100 100 100 100 100 100 100 99 76 70 89 92
100 79 72 57 41 34 26 26 22 33 55 32 27 42 65 61 62 51 60 72 73 76 86 80 96 100 100 100 100 100 95 88 88 99 100 100 100 100 100 100 100 100 100 100 100 99 100 100 100
70 53 36 30 26 25 24 20 24 27 46 54 39 38 38 45 43 79 84 94 100 100 100 100 100 100 100 94 82 83 80 84 87 90 95 100 100 100 100 100 100 100 100 100 100 100 100 100 100
44 39 28 27 22 21 22 25 31 35 40 42 62 49 49 49 72 94 100 100 100 100 100 100 100 100 100 100 100 100 97 100 100 100 100 100 100 100 100 100 100 100 100 100 100 100 100 94 100
49 31 25 18 20 33 38 58 56 57 54 61 64 69 68 94 100 100 100 100 100 100 100 100 100 100 98 76 59 70 69 71 73 76 88 99 98 92 93 100 100 100 100 100 100 100 100 100 100
26 24 21 26 31 45 70 62 50 48 46 57 76 100 100 100 100 100 100 100 100 100 100 100 99 87 64 60 63 64 59 52 48 48 51 52 59 74 92 95 97 98 99 94 100 100 100 100 100
31 23 36 62 92 76 54 41 33 42 67 79 78 88 100 100 100 100 100 100 98 100 88 84 77 74 58 52 62 63 63 55 51 49 48 47 44 50 64 78 86 91 98 85 84 83 74 91 99
41 65 93 90 72 50 41 32 22 30 44 74 100 100 100 100 100 100 99 84 94 98 78 82 68 56 76 95 95 81 56 47 42 40 38 44 51 57 53 51 60 77 97 100 100 94 81 72 60
98 100 82 55 39 25 22 23 15 39 86 97 100 100 100 100 100 100 100 100 88 77 89 85 94 100 88 71 59 52 42 40 40 42 40 40 40 38 32 34 41 45 50 57 82 100 100 100 93
88 59 48 40 28 16 15 15 46 91 100 100 100 100 100 100 100 100 83 72 91 100 100 100 84 58 46 40 34 32 37 42 45 49 44 42 42 40 39 40 39 33 32 38 48 50 65 84 100
60 38 33 29 20 10 13 16 50 100 100 100 100 100 100 100 100 100 98 96 100 100 100 84 58 48 40 42 53 59 61 59 49 46 42 38 38 38 39 41 41 40 39 37 36 38 41 48 65
33 37 19 12 11 12 12 13 48 84 84 96 100 100 100 100 100 100 100 100 100 100 100 84 53 42 50 55 54 52 47 44 41 38 35 36 43 47 46 44 44 43 40 38 35 36 39 39 39
43 27 19 11 11 12 11 12 15 29 52 85 100 98 90 89 100 100 100 100 100 100 99 67 42 46 44 45 42 42 40 39 36 36 49 67 77 98 99 85 70 67 63 58 56 57 54 51 46
29 16 11 12 13 11 12 11 12 21 60 85 100 92 88 97 100 100 100 100 100 84 53 35 39 38 40 41 39 38 36 35 52 83 100 100 100 86 73 74 81 78 75 72 69 65 62 55 55
13 10 11 14 14 13 12 12 11 16 44 72 90 98 100 100 100 100 93 73 47 38 42 44 41 46 45 42 41 34 35 61 85 95 90 94 84 82 85 80 74 58 48 43 41 40 40 39 37
10 10 12 14 16 16 14 13 15 39 79 81 89 99 100 97 95 74 55 48 46 49 41 44 44 45 43 44 38 42 74 91 94 90 89 80 77 71 69 61 50 44 41 39 37 36 36 34 32
12 11 12 16 18 16 16 19 29 62 90 74 78 95 94 87 65 50 45 45 44 39 37 43 50 51 53 43 42 76 88 88 85 79 81 71 67 55 47 43 38 34 31 27 24 22 21 21 20
Wind_Speed
44 38 37 35 27 33 33 43 26 33 33 41 40 43 40 40 40 35 35 42 41 40 39 31 34 27 28 28 29 27 24 24 25 25 24 22 18 17 18 18 20 22 24 24 22 22 22 22 22
43 41 38 27 23 30 43 40 29 36 40 40 45 42 44 38 34 38 33 33 37 39 41 31 30 29 25 26 28 27 19 21 21 25 26 25 21 23 24 25 28 28 29 29 26 24 22 23 23
44 34 27 21 16 29 37 38 35 34 41 40 43 41 42 33 35 41 46 37 33 33 38 38 32 30 27 22 23 26 23 21 19 22 21 22 22 24 21 22 27 28 29 25 24 23 23 23 22
31 26 23 20 23 34 35 34 38 36 37 36 36 37 42 42 33 47 55 52 35 30 35 34 36 36 33 22 20 23 25 23 22 21 21 23 19 22 22 22 20 21 25 26 26 25 24 24 24
27 29 24 28 32 38 29 32 31 27 37 43 37 38 39 48 38 47 55 46 45 38 40 36 34 36 38 32 23 20 21 27 26 24 22 22 24 24 24 24 24 24 24 23 24 28 29 29 28
32 36 31 28 33 43 35 30 26 35 41 43 47 48 52 54 47 51 54 47 41 41 37 34 40 38 35 27 35 24 24 30 29 32 29 27 26 28 31 33 32 27 22 25 24 25 23 25 29
38 38 32 33 39 39 33 28 36 43 42 43 51 50 54 51 51 47 48 46 44 45 40 43 50 35 35 30 30 37 28 29 37 37 33 32 30 29 31 33 34 36 33 30 28 27 25 27 27
39 32 33 30 33 32 31 40 45 42 44 53 56 56 54 48 43 38 42 43 50 43 43 40 41 25 30 33 33 37 34 34 47 41 37 39 38 36 31 35 39 37 39 38 38 34 29 28 27
35 42 40 38 37 34 37 42 51 48 52 55 60 59 44 41 40 44 47 42 43 45 42 33 32 26 22 30 35 35 46 49 57 52 44 42 40 39 36 37 39 40 41 42 38 37 36 34 34
44 47 44 39 44 45 53 58 57 59 57 57 54 47 47 42 46 46 43 43 34 40 46 49 51 50 40 49 53 51 57 53 61 58 48 40 40 39 42 39 39 42 42 41 42 40 36 36 37
48 50 53 49 47 50 56 62 63 60 56 51 46 49 46 45 48 45 50 44 34 37 48 52 53 49 51 58 55 55 53 54 53 57 52 37 37 38 42 43 46 42 38 41 42 43 37 40 39
55 54 58 56 57 59 58 63 66 66 63 57 58 53 47 46 46 45 46 42 39 49 54 58 44 46 48 52 46 46 46 46 53 53 58 56 46 56 47 45 46 48 47 45 46 43 39 43 39
63 65 64 62 65 66 69 69 70 70 74 64 59 65 59 55 48 46 47 46 54 59 57 50 43 43 43 46 48 48 50 55 55 60 67 69 62 58 57 55 57 60 64 64 57 56 54 55 54
63 64 66 68 70 71 72 76 76 73 76 75 69 69 62 61 55 53 52 53 53 59 53 49 45 44 49 48 57 60 56 64 70 68 72 79 80 79 71 66 63 63 65 64 66 65 64 65 66
64 71 74 76 76 80 79 83 80 77 74 72 76 74 68 63 63 60 56 55 57 54 52 50 50 53 54 57 61 60 63 63 65 69 69 79 79 77 74 72 70 69 71 72 73 69 71 71 67
75 77 82 84 84 83 83 86 80 76 73 71 77 77 72 68 64 54 60 55 57 56 55 56 57 59 59 58 60 60 65 69 71 71 74 78 82 83 78 73 73 74 70 71 74 75 74 73 73
80 83 85 88 87 82 76 75 69 68 70 73 78 74 75 70 60 59 56 57 59 60 59 59 59 55 61 68 72 77 75 74 76 77 78 79 80 80 77 77 76 75 75 75 74 75 76 77 76
86 86 86 85 75 65 60 69 67 71 76 75 77 76 76 64 56 57 58 59 59 61 61 59 60 65 73 79 79 72 70 70 67 66 67 68 71 74 77 79 82 83 79 77 76 76 77 78 79
84 80 82 69 69 67 73 77 82 79 73 67 63 64 60 57 60 61 60 63 63 62 60 62 70 76 76 67 61 57 54 55 57 60 60 61 63 64 66 69 73 77 80 84 84 81 77 77 78
73 70 70 74 77 84 80 74 73 72 61 60 57 54 51 54 59 63 66 65 62 62 70 72 73 67 58 52 49 49 54 56 57 58 61 62 65 67 67 68 68 69 71 73 75 76 82 81 77
70 68 72 76 86 78 80 79 69 62 56 52 52 53 55 57 58 61 66 69 68 72 73 67 60 54 52 51 54 61 64 65 66 66 68 68 69 71 72 75 75 73 72 72 74 74 75 77 83
75 81 85 80 78 76 74 63 65 60 57 50 48 53 58 59 65 69 73 72 74 71 60 58 51 54 56 60 65 70 70 66 65 65 66 67 68 71 74 77 80 83 82 82 80 78 79 79 82
84 90 89 75 77 74 63 61 63 56 50 48 49 54 56 60 66 72 77 75 63 59 56 53 57 61 61 63 64 68 70 70 72 72 71 72 74 75 75 76 78 81 84 87 89 90 87 85 85
89 78 74 72 74 61 60 60 61 56 54 55 53 58 64 66 62 60 66 63 57 55 54 57 61 66 69 69 68 71 69 68 68 68 69 70 71 72 72 72 74 76 80 82 86 87 90 92 95
71 65 67 69 63 58 55 56 62 65 64 63 61 56 54 55 56 60 55 54 58 52 56 61 64 67 66 68 68 68 70 71 71 69 67 63 59 56 55 57 57 58 61 66 71 76 82 86 89
62 63 69 63 57 56 54 53 59 63 62 59 57 53 51 49 50 48 46 44 48 54 61 64 66 66 66 65 65 68 72 72 69 63 54 46 42 42 45 49 51 54 54 55 57 57 60 65 72
61 70 62 58 57 56 52 52 54 56 55 47 41 43 42 39 39 42 44 47 52 60 63 63 62 63 64 62 64 65 67 63 55 45 40 41 44 48 52 54 57 60 62 64 66 68 70 72 73
61 65 55 51 52 55 54 49 51 53 49 40 41 38 37 38 42 46 48 53 58 58 58 60 62 62 62 63 66 64 56 46 40 39 43 47 51 53 57 60 64 67 69 71 75 78 80 82 83
55 59 56 54 48 51 53 47 48 46 40 37 37 36 42 47 51 53 53 56 57 59 60 62 64 64 63 66 65 56 43 38 38 43 47 52 56 60 65 67 69 73 78 81 83 85 89 92 97
54 56 57 53 48 47 49 50 46 40 35 37 35 39 45 47 47 50 52 56 58 61 65 65 65 65 64 66 60 45 41 40 44 49 53 57 63 68 69 74 78 82 84 88 91 93 98 104 108
Wind_Direction
355 354 355 356 28 20 4 0 21 15 3 13 19 19 10 7 16 12 351 359 353 357 358 8 3 3 7 12 9 13 27 26 17 4 342 320 304 291 283 285 285 287 292 292 291 289 287 294 293
353 348 354 8 24 9 355 359 5 356 2 7 12 9 10 7 9 14 0 355 348 349 345 352 1 360 354 355 1 2 10 11 16 9 7 359 331 309 299 292 295 294 297 296 290 292 292 299 303
353 356 7 19 7 352 354 357 346 1 6 1 4 10 8 5 11 10 5 355 345 341 349 339 334 335 345 349 345 352 348 350 351 354 5 1 358 352 329 306 295 294 298 295 298 300 297 297 297
1 359 360 4 339 343 346 356 337 0 5 1 358 14 9 2 359 356 355 353 339 326 335 341 328 326 327 329 334 338 339 336 339 343 346 347 340 342 341 339 330 315 304 291 283 284 285 285 290
351 352 334 324 328 334 343 344 342 354 358 355 358 360 359 356 344 347 353 354 353 334 324 324 325 319 324 330 315 328 333 333 329 327 326 327 328 324 322 320 325 325 327 320 306 297 286 279 279
336 346 335 313 321 331 335 343 2 346 339 341 341 346 345 343 345 344 346 350 352 347 330 328 327 319 315 327 321 323 331 341 325 320 317 318 318 316 312 311 307 305 314 314 324 322 311 299 296
342 331 329 315 331 335 334 338 331 335 334 336 334 336 340 339 340 346 347 344 340 347 325 321 321 310 307 312 314 311 314 326 333 318 313 308 308 311 309 310 308 298 296 303 298 304 302 309 311
329 350 339 338 337 343 330 320 323 328 334 331 330 333 335 339 344 344 343 340 337 339 339 321 324 314 304 301 302 306 309 319 319 315 306 304 304 303 301 303 300 303 294 292 300 296 296 295 298
319 329 324 322 330 324 321 325 326 328 329 328 326 328 338 336 339 336 334 337 336 334 330 331 328 320 311 298 297 282 296 302 311 311 307 301 300 300 297 297 298 293 294 290 295 293 294 291 289
312 313 319 319 321 318 314 315 319 318 323 325 326 330 333 328 331 329 331 332 329 327 324 330 328 326 298 298 302 297 295 296 300 300 304 300 299 297 296 295 292 293 293 287 287 291 290 289 286
307 305 309 310 311 310 311 316 317 315 318 324 324 326 326 321 325 326 327 329 317 318 318 322 319 314 300 292 299 299 296 295 294 295 293 291 292 296 293 286 283 280 283 285 283 275 277 279 280
305 306 311 311 308 309 309 314 314 311 310 312 315 319 318 323 323 318 318 317 310 309 313 319 314 306 302 284 297 294 289 290 291 295 291 289 278 283 275 273 278 274 275 275 274 272 268 269 274
303 307 308 310 311 312 312 313 314 309 309 313 315 315 313 312 317 315 311 307 310 311 312 313 305 303 301 299 299 294 287 286 284 287 288 288 287 280 278 276 275 276 275 275 272 269 273 270 275
304 305 306 307 308 312 313 311 312 310 309 310 312 311 310 310 311 313 313 306 303 311 305 304 296 286 281 286 286 284 279 281 283 284 285 285 287 283 279 277 276 276 271 268 269 270 271 272 273
302 302 304 305 307 308 310 307 308 305 305 307 315 313 308 308 306 309 313 307 308 304 299 301 292 284 278 275 275 273 276 277 278 280 280 281 279 275 274 274 273 272 270 268 270 270 275 271 269
298 300 303 304 305 306 303 304 304 303 302 308 314 312 311 308 311 308 307 305 294 299 292 289 286 283 280 277 271 270 273 275 275 274 271 272 275 273 272 270 267 270 271 268 269 271 269 268 268
299 302 302 303 305 304 303 303 304 305 308 305 308 305 305 307 308 308 302 295 290 291 289 285 286 287 290 295 292 289 285 277 273 271 271 270 269 271 272 271 270 271 271 269 267 267 268 267 267
298 300 301 303 303 303 307 305 303 301 308 306 304 303 305 307 305 300 291 289 289 288 288 286 285 291 294 296 291 287 287 287 284 280 277 273 271 269 266 268 268 268 269 270 269 269 268 267 264
298 302 301 299 297 298 302 305 306 307 308 309 306 305 304 299 296 292 292 286 285 285 282 287 291 293 297 294 295 295 294 292 290 288 284 282 280 278 275 271 269 267 266 266 265 263 265 267 265
300 301 300 299 299 306 309 308 310 311 310 308 308 306 300 294 287 283 284 283 285 288 295 299 300 297 298 299 294 291 294 291 286 284 283 282 280 278 277 276 275 271 270 269 267 265 263 259 259
299 298 296 295 307 308 307 307 312 312 312 312 307 301 295 293 286 286 287 291 300 306 305 302 302 303 302 300 295 294 293 292 289 287 283 277 273 270 270 272 272 272 273 273 271 269 268 265 260
293 298 304 306 306 307 310 310 312 312 311 310 303 294 291 286 286 292 293 295 304 304 300 306 306 302 300 298 297 293 292 292 292 290 287 284 281 278 275 271 269 268 268 269 270 268 267 265 265
294 301 302 303 306 309 308 312 310 311 304 300 298 291 291 292 291 292 294 304 302 301 301 302 303 303 303 301 298 296 298 296 294 292 290 288 284 282 278 277 275 273 272 272 270 270 269 264 263
297 298 301 304 307 311 311 310 307 298 298 296 291 290 292 295 299 294 301 301 303 301 299 308 309 308 307 306 305 302 299 296 295 292 291 291 287 284 282 279 278 277 274 272 272 271 270 270 270
298 301 306 307 306 305 305 306 299 295 294 294 296 295 296 293 290 293 295 294 291 295 304 307 309 307 308 306 303 301 301 300 298 298 297 296 293 290 288 285 284 283 281 278 277 275 273 270 269
300 302 303 305 304 305 308 306 300 298 297 297 298 299 294 295 292 295 292 292 292 297 301 304 306 304 304 303 302 304 304 303 303 301 299 298 300 302 301 299 298 297 296 293 289 286 281 278 274
301 303 303 304 306 309 305 307 298 298 300 305 302 294 295 296 291 288 293 295 295 296 297 298 301 304 304 304 305 306 304 302 299 298 304 304 302 302 305 305 303 300 296 293 291 289 287 284 281
305 301 305 309 308 304 305 303 301 302 306 306 296 294 291 286 283 286 292 292 294 299 301 305 308 309 310 312 312 309 305 299 294 296 299 302 302 302 301 300 299 297 294 292 290 288 285 282 279
304 303 308 309 312 307 303 302 302 306 306 301 296 292 286 287 288 295 303 306 306 307 309 309 311 312 315 317 315 310 300 296 297 298 302 304 305 305 304 302 300 298 296 293 289 286 281 278 276
302 308 309 312 313 308 303 304 307 305 303 297 295 288 287 287 298 307 307 308 310 312 315 315 316 317 318 319 316 304 299 302 304 307 308 308 310 309 306 305 303 300 295 292 288 285 281 278 276